Hourly Weather Otradnyy

Today, 21 January, Thursday

Time Temperature Precipitation Wind Pressure Humidity
00:00 -17°C° 0 mm 1 mps 770 mmHg 90%
01:00 -18°C° 0 mm 1 mps 770 mmHg 91%
02:00 -18°C° 0 mm 0 mps 770 mmHg 91%
03:00 -19°C° 0 mm 0 mps 770 mmHg 90%
04:00 -19°C° 0 mm 0 mps 771 mmHg 90%
05:00 -19°C° 0 mm 0 mps 771 mmHg 90%
06:00 -19°C° 0 mm 0 mps 771 mmHg 89%
07:00 -18°C° 0 mm 1 mps 771 mmHg 89%
08:00 -18°C° 0 mm 1 mps 771 mmHg 88%
09:00 -17°C° 0 mm 1 mps 772 mmHg 87%
10:00 -15°C° 0 mm 1 mps 772 mmHg 86%
11:00 -13°C° 0 mm 1 mps 772 mmHg 84%
12:00 -12°C° 0 mm 1 mps 772 mmHg 83%
13:00 -11°C° 0 mm 1 mps 771 mmHg 85%
14:00 -12°C° 0 mm 2 mps 771 mmHg 86%
15:00 -12°C° 0 mm 2 mps 770 mmHg 88%
16:00 -12°C° 0 mm 2 mps 770 mmHg 88%
17:00 -13°C° 0 mm 2 mps 771 mmHg 89%
18:00 -14°C° 0 mm 3 mps 771 mmHg 90%
19:00 -13°C° 0 mm 3 mps 770 mmHg 91%
20:00 -10°C° 0 mm 3 mps 770 mmHg 92%
21:00 -9°C° 0 mm 3 mps 770 mmHg 94%
22:00 -7°C° 0 mm 2 mps 769 mmHg 94%
23:00 -6°C° 0 mm 2 mps 769 mmHg 94%

Tomorrow, 22 January, Friday

Time Temperature Precipitation Wind Pressure Humidity
00:00 -6°C° 0 mm 2 mps 769 mmHg 95%
01:00 -5°C° 0.1 mm 3 mps 769 mmHg 95%
02:00 -2°C° 0.1 mm 3 mps 768 mmHg 96%
03:00 -2°C° 0.1 mm 4 mps 768 mmHg 97%
04:00 -1°C° 0 mm 4 mps 768 mmHg 97%
05:00 -1°C° 0 mm 4 mps 768 mmHg 97%
06:00 0°C° 0 mm 5 mps 767 mmHg 97%
07:00 0°C° 0 mm 5 mps 768 mmHg 96%
08:00 0°C° 0 mm 5 mps 768 mmHg 96%
09:00 0°C° 0 mm 5 mps 768 mmHg 95%
10:00 0°C° 0 mm 5 mps 768 mmHg 96%
11:00 0°C° 0 mm 5 mps 768 mmHg 98%
12:00 0°C° 0 mm 5 mps 768 mmHg 99%
13:00 0°C° 0 mm 5 mps 768 mmHg 99%
14:00 0°C° 0 mm 5 mps 768 mmHg 98%
15:00 0°C° 0 mm 4 mps 767 mmHg 98%
16:00 0°C° 0 mm 4 mps 767 mmHg 97%
17:00 -1°C° 0 mm 4 mps 767 mmHg 97%
18:00 -1°C° 0 mm 4 mps 767 mmHg 96%
19:00 -1°C° 0 mm 4 mps 768 mmHg 96%
20:00 -1°C° 0 mm 4 mps 768 mmHg 97%
21:00 -1°C° 0 mm 4 mps 768 mmHg 97%
22:00 0°C° 0 mm 3 mps 768 mmHg 95%
23:00 -1°C° 0 mm 3 mps 768 mmHg 93%

Day after tomorrow, 23 January, Saturday

Time Temperature Precipitation Wind Pressure Humidity
00:00 -1°C° 0 mm 3 mps 768 mmHg 91%
01:00 -2°C° 0 mm 3 mps 767 mmHg 88%
02:00 -2°C° 0 mm 3 mps 767 mmHg 85%
03:00 -2°C° 0 mm 3 mps 767 mmHg 82%
04:00 -2°C° 0 mm 3 mps 767 mmHg 81%
05:00 -2°C° 0 mm 3 mps 767 mmHg 79%
06:00 -2°C° 0 mm 3 mps 767 mmHg 78%
07:00 -2°C° 0 mm 3 mps 767 mmHg 78%
08:00 -2°C° 0 mm 3 mps 767 mmHg 78%
09:00 -2°C° 0 mm 2 mps 767 mmHg 77%
10:00 -1°C° 0 mm 2 mps 767 mmHg 81%
11:00 +1°C° 0 mm 2 mps 767 mmHg 85%
12:00 +2°C° 0 mm 2 mps 767 mmHg 89%
13:00 +2°C° 0 mm 2 mps 766 mmHg 87%
14:00 +1°C° 0 mm 3 mps 766 mmHg 86%
15:00 +1°C° 0 mm 3 mps 766 mmHg 84%
16:00 0°C° 0 mm 3 mps 766 mmHg 83%
17:00 0°C° 0 mm 3 mps 766 mmHg 81%
18:00 -1°C° 0 mm 3 mps 765 mmHg 79%
19:00 -1°C° 0 mm 3 mps 765 mmHg 79%
20:00 -1°C° 0 mm 3 mps 766 mmHg 79%
21:00 -2°C° 0 mm 3 mps 766 mmHg 78%
22:00 -2°C° 0 mm 3 mps 765 mmHg 78%
23:00 -2°C° 0 mm 3 mps 765 mmHg 78%

24 January, Sunday

Time Temperature Precipitation Wind Pressure Humidity
00:00 -2°C° 0 mm 3 mps 765 mmHg 78%
01:00 -4°C° 0 mm 3 mps 765 mmHg 78%
02:00 -4°C° 0 mm 3 mps 765 mmHg 78%
03:00 -4°C° 0 mm 3 mps 765 mmHg 79%
04:00 -4°C° 0 mm 3 mps 765 mmHg 80%
05:00 -4°C° 0 mm 3 mps 765 mmHg 80%
06:00 -4°C° 0 mm 3 mps 764 mmHg 81%
07:00 -4°C° 0 mm 3 mps 765 mmHg 83%
08:00 -2°C° 0 mm 3 mps 765 mmHg 84%
09:00 -2°C° 0 mm 3 mps 765 mmHg 86%
10:00 -2°C° 0 mm 4 mps 765 mmHg 87%
11:00 -2°C° 0 mm 4 mps 764 mmHg 88%
12:00 -1°C° 0 mm 4 mps 764 mmHg 90%
13:00 -1°C° 0 mm 4 mps 764 mmHg 91%
14:00 -1°C° 0 mm 4 mps 763 mmHg 93%
15:00 -1°C° 0 mm 4 mps 763 mmHg 95%
16:00 -1°C° 0 mm 4 mps 763 mmHg 94%
17:00 -1°C° 0 mm 4 mps 763 mmHg 94%
18:00 -2°C° 0 mm 5 mps 763 mmHg 93%
19:00 -2°C° 0 mm 4 mps 763 mmHg 93%
20:00 -2°C° 0 mm 4 mps 762 mmHg 93%
21:00 -2°C° 0 mm 4 mps 762 mmHg 93%
22:00 -2°C° 0 mm 4 mps 762 mmHg 93%
23:00 -2°C° 0 mm 4 mps 762 mmHg 92%

25 January, Monday

Time Temperature Precipitation Wind Pressure Humidity
00:00 -2°C° 0 mm 3 mps 762 mmHg 91%
01:00 -2°C° 0 mm 3 mps 762 mmHg 91%
02:00 -2°C° 0 mm 3 mps 762 mmHg 90%
03:00 -2°C° 0 mm 3 mps 761 mmHg 89%
04:00 -2°C° 0 mm 3 mps 761 mmHg 88%
05:00 -2°C° 0 mm 3 mps 761 mmHg 87%
06:00 -2°C° 0 mm 3 mps 761 mmHg 86%
07:00 -2°C° 0 mm 3 mps 761 mmHg 85%
08:00 -1°C° 0 mm 2 mps 761 mmHg 84%
09:00 -1°C° 0 mm 2 mps 762 mmHg 83%
10:00 +1°C° 0 mm 2 mps 761 mmHg 86%
11:00 +2°C° 0 mm 2 mps 761 mmHg 89%
12:00 +2°C° 0 mm 2 mps 761 mmHg 92%
13:00 +1°C° 0 mm 3 mps 761 mmHg 92%
14:00 +2°C° 0 mm 3 mps 761 mmHg 92%
15:00 +2°C° 0 mm 3 mps 760 mmHg 92%
16:00 +1°C° 0 mm 3 mps 760 mmHg 89%
17:00 0°C° 0 mm 3 mps 760 mmHg 86%
18:00 -1°C° 0 mm 4 mps 760 mmHg 84%
19:00 -1°C° 0 mm 4 mps 760 mmHg 83%
20:00 -1°C° 0 mm 4 mps 760 mmHg 83%
21:00 -1°C° 0 mm 4 mps 760 mmHg 83%
22:00 -1°C° 0 mm 5 mps 759 mmHg 82%
23:00 -1°C° 0 mm 5 mps 759 mmHg 81%

26 January, Tuesday

Time Temperature Precipitation Wind Pressure Humidity
00:00 0°C° 0 mm 5 mps 759 mmHg 80%
01:00 0°C° 0 mm 5 mps 759 mmHg 80%
02:00 -1°C° 0 mm 5 mps 759 mmHg 80%
03:00 -1°C° 0 mm 4 mps 759 mmHg 80%
04:00 0°C° 0 mm 4 mps 759 mmHg 79%
05:00 0°C° 0 mm 4 mps 759 mmHg 79%
06:00 0°C° 0 mm 4 mps 758 mmHg 78%
07:00 0°C° 0 mm 4 mps 759 mmHg 79%
08:00 0°C° 0 mm 4 mps 759 mmHg 80%
09:00 +1°C° 0 mm 4 mps 759 mmHg 80%
10:00 +1°C° 0 mm 4 mps 759 mmHg 84%
11:00 +1°C° 0 mm 4 mps 759 mmHg 88%
12:00 +1°C° 0 mm 4 mps 758 mmHg 91%
13:00 +1°C° 0.1 mm 4 mps 758 mmHg 90%
14:00 +1°C° 0.1 mm 4 mps 757 mmHg 88%
15:00 +1°C° 0.1 mm 5 mps 757 mmHg 87%
16:00 +1°C° 0 mm 5 mps 756 mmHg 85%
17:00 +1°C° 0 mm 6 mps 756 mmHg 84%
18:00 +1°C° 0 mm 6 mps 756 mmHg 82%
19:00 +1°C° 0 mm 6 mps 755 mmHg 82%
20:00 +1°C° 0 mm 6 mps 754 mmHg 81%
21:00 +1°C° 0 mm 5 mps 754 mmHg 80%
22:00 +1°C° 0 mm 6 mps 754 mmHg 80%
23:00 +1°C° 0 mm 6 mps 753 mmHg 80%
Show more